TimeCST,TemperatureF,Dew PointF,Humidity,Sea Level PressureIn,VisibilityMPH,Wind Direction,Wind SpeedMPH,Gust SpeedMPH,PrecipitationIn,Events,Conditions,WindDirDegrees,DateUTC
12:15 AM,36.1,25.7,66,29.97,10.0,SW,18.4,27.6,N/A,,Scattered Clouds,220,2013-01-19 06:15:00
12:35 AM,35.8,25.9,67,29.96,10.0,SW,19.6,27.6,N/A,,Clear,220,2013-01-19 06:35:00
12:55 AM,35.8,26.1,68,29.97,10.0,SW,17.3,34.5,N/A,,Scattered Clouds,230,2013-01-19 06:55:00
1:15 AM,35.6,26.4,69,29.98,10.0,SW,18.4,24.2,N/A,,Scattered Clouds,230,2013-01-19 07:15:00
1:35 AM,35.6,26.6,70,29.98,10.0,SW,19.6,25.3,N/A,,Scattered Clouds,220,2013-01-19 07:35:00
1:55 AM,35.6,26.6,70,29.98,10.0,SW,18.4,23.0,N/A,,Scattered Clouds,230,2013-01-19 07:55:00
2:15 AM,35.1,26.6,71,29.98,10.0,SW,18.4,23.0,N/A,,Scattered Clouds,220,2013-01-19 08:15:00
2:35 AM,35.2,26.8,71,29.98,10.0,SW,18.4,25.3,N/A,,Scattered Clouds,220,2013-01-19 08:35:00
2:55 AM,35.2,27.0,72,29.98,10.0,SW,17.3,24.2,N/A,,Scattered Clouds,220,2013-01-19 08:55:00
3:15 AM,34.9,27.0,73,29.98,10.0,SW,13.8,20.7,N/A,,Scattered Clouds,230,2013-01-19 09:15:00
3:35 AM,34.7,27.1,74,29.97,10.0,SW,12.7,-,N/A,,Mostly Cloudy,230,2013-01-19 09:35:00
3:55 AM,34.7,27.3,74,29.97,10.0,SW,13.8,-,N/A,,Scattered Clouds,230,2013-01-19 09:55:00
4:15 AM,34.3,27.3,76,29.96,10.0,SW,13.8,-,N/A,,Scattered Clouds,220,2013-01-19 10:15:00
4:35 AM,34.3,27.3,76,29.96,10.0,SW,13.8,19.6,N/A,,Scattered Clouds,220,2013-01-19 10:35:00
4:55 AM,34.0,27.1,76,29.96,10.0,SW,13.8,20.7,N/A,,Scattered Clouds,230,2013-01-19 10:55:00
5:15 AM,33.8,27.1,77,29.96,10.0,SW,12.7,-,N/A,,Clear,230,2013-01-19 11:15:00
5:35 AM,33.8,27.1,77,29.95,10.0,SW,12.7,18.4,N/A,,Scattered Clouds,230,2013-01-19 11:35:00
5:55 AM,33.8,27.1,77,29.95,10.0,SW,12.7,-,N/A,,Scattered Clouds,220,2013-01-19 11:55:00
7:15 AM,34.2,27.5,77,29.94,10.0,SW,10.4,-,N/A,,Clear,220,2013-01-19 13:15:00
7:55 AM,36.0,28.0,73,29.94,10.0,SSW,16.1,20.7,N/A,,Clear,210,2013-01-19 13:55:00
8:15 AM,36.7,28.4,72,29.94,10.0,SW,12.7,-,N/A,,Clear,220,2013-01-19 14:15:00
8:35 AM,37.0,28.0,70,29.94,10.0,SW,17.3,21.9,N/A,,Clear,220,2013-01-19 14:35:00
9:35 AM,39.6,28.4,64,29.93,10.0,SW,17.3,23.0,N/A,,Clear,220,2013-01-19 15:35:00
9:55 AM,40.6,28.8,63,29.93,10.0,SW,17.3,26.5,N/A,,Clear,230,2013-01-19 15:55:00
10:15 AM,41.7,29.1,61,29.92,10.0,SW,17.3,24.2,N/A,,Clear,220,2013-01-19 16:15:00
10:35 AM,43.3,29.1,57,29.91,10.0,SW,19.6,28.8,N/A,,Clear,230,2013-01-19 16:35:00
10:55 AM,42.8,29.3,59,29.89,10.0,SW,12.7,25.3,N/A,,Clear,220,2013-01-19 16:55:00
11:15 AM,42.6,29.5,60,29.88,10.0,SW,19.6,26.5,N/A,,Clear,220,2013-01-19 17:15:00
11:35 AM,46.0,30.6,55,29.85,10.0,SSW,15.0,21.9,N/A,,Clear,210,2013-01-19 17:35:00
11:55 AM,46.2,30.2,54,29.85,10.0,WSW,18.4,26.5,N/A,,Clear,240,2013-01-19 17:55:00
12:15 PM,46.8,30.6,53,29.82,10.0,SW,23.0,33.4,N/A,,Clear,230,2013-01-19 18:15:00
12:35 PM,46.4,30.6,54,29.81,10.0,SW,21.9,32.2,N/A,,Clear,230,2013-01-19 18:35:00
12:55 PM,47.5,31.1,53,29.81,10.0,WSW,26.5,33.4,N/A,,Clear,240,2013-01-19 18:55:00
1:35 PM,45.5,31.1,57,29.79,10.0,SW,21.9,25.3,N/A,,Clear,230,2013-01-19 19:35:00
1:55 PM,45.5,31.5,58,29.78,10.0,SW,20.7,25.3,N/A,,Clear,230,2013-01-19 19:55:00
2:15 PM,45.5,31.8,59,29.78,10.0,SW,17.3,25.3,N/A,,Clear,230,2013-01-19 20:15:00
2:35 PM,45.1,31.8,60,29.78,10.0,WSW,16.1,25.3,N/A,,Mostly Cloudy,240,2013-01-19 20:35:00
2:55 PM,45.0,32.0,60,29.78,10.0,SW,13.8,25.3,N/A,,Overcast,230,2013-01-19 20:55:00
3:15 PM,45.3,32.2,60,29.75,10.0,SSW,13.8,20.7,N/A,,Mostly Cloudy,200,2013-01-19 21:15:00
3:35 PM,45.5,32.0,59,29.76,10.0,SW,20.7,33.4,N/A,,Scattered Clouds,220,2013-01-19 21:35:00
3:55 PM,45.5,32.2,60,29.76,10.0,SW,20.7,27.6,N/A,,Scattered Clouds,220,2013-01-19 21:55:00
4:15 PM,45.5,32.4,60,29.76,10.0,SW,18.4,26.5,N/A,,Clear,230,2013-01-19 22:15:00
4:35 PM,44.6,32.4,62,29.76,10.0,SW,13.8,-,N/A,,Clear,220,2013-01-19 22:35:00
4:55 PM,43.2,32.2,65,29.76,10.0,SW,13.8,-,N/A,,Clear,230,2013-01-19 22:55:00
5:15 PM,42.6,32.2,67,29.76,10.0,SW,12.7,-,N/A,,Clear,230,2013-01-19 23:15:00
5:35 PM,42.1,32.4,68,29.77,10.0,SW,12.7,-,N/A,,Clear,230,2013-01-19 23:35:00
5:55 PM,42.1,32.7,69,29.77,10.0,SW,13.8,19.6,N/A,,Clear,230,2013-01-19 23:55:00
6:15 PM,42.1,33.1,70,29.78,10.0,WSW,13.8,-,N/A,,Clear,240,2013-01-20 00:15:00
6:35 PM,41.2,33.3,73,29.77,10.0,WSW,13.8,-,N/A,,Clear,240,2013-01-20 00:35:00
6:55 PM,41.0,33.3,74,29.77,10.0,SW,11.5,17.3,N/A,,Clear,230,2013-01-20 00:55:00
7:15 PM,40.5,33.3,75,29.76,10.0,WSW,13.8,18.4,N/A,,Clear,240,2013-01-20 01:15:00
7:35 PM,40.3,33.1,75,29.76,10.0,WSW,12.7,-,N/A,,Clear,240,2013-01-20 01:35:00
7:55 PM,40.3,32.9,75,29.76,10.0,WSW,15.0,20.7,N/A,,Clear,240,2013-01-20 01:55:00
8:15 PM,41.0,32.4,71,29.76,10.0,WSW,15.0,21.9,N/A,,Scattered Clouds,250,2013-01-20 02:15:00
8:35 PM,42.1,32.0,67,29.76,10.0,West,17.3,21.9,N/A,,Mostly Cloudy,260,2013-01-20 02:35:00
8:55 PM,41.9,32.0,68,29.76,10.0,West,16.1,23.0,N/A,,Mostly Cloudy,260,2013-01-20 02:55:00
9:15 PM,41.4,31.3,67,29.76,10.0,West,18.4,27.6,N/A,,Scattered Clouds,260,2013-01-20 03:15:00
9:35 PM,41.5,30.2,64,29.77,10.0,West,29.9,46.0,N/A,,Scattered Clouds,280,2013-01-20 03:35:00
9:55 PM,41.2,29.1,62,29.78,10.0,West,19.6,38.0,N/A,,Scattered Clouds,280,2013-01-20 03:55:00
10:15 PM,40.3,28.2,62,29.78,10.0,West,25.3,32.2,N/A,,Scattered Clouds,280,2013-01-20 04:15:00
10:35 PM,39.7,25.7,57,29.78,10.0,West,33.4,46.0,N/A,,Scattered Clouds,280,2013-01-20 04:35:00
10:55 PM,38.8,23.4,54,29.79,10.0,West,24.2,41.4,N/A,,Scattered Clouds,280,2013-01-20 04:55:00
11:15 PM,38.3,26.1,61,29.79,10.0,West,26.5,35.7,N/A,,Scattered Clouds,270,2013-01-20 05:15:00
11:35 PM,37.4,23.2,57,29.79,10.0,West,26.5,42.6,N/A,,Mostly Cloudy,270,2013-01-20 05:35:00
11:55 PM,35.6,17.4,48,29.82,10.0,WNW,20.7,39.1,N/A,,Scattered Clouds,290,2013-01-20 05:55:00